Regional Weather Roundup
Issued by NWS Upton, NY

Current Version | Previous Version | Graphics & Text | Print | Product List | Glossary Off
Versions: 1 2 3 4 5 6 7 8 9 10 11 12 13 14 15 16 17 18 19 20 21 22 23 24 25 26 27

000
ASUS41 KOKX 161108
RWROKX

REGIONAL WEATHER ROUNDUP
NATIONAL WEATHER SERVICE NEW YORK NY
700 AM EDT MON OCT 16 2017

NOTE: "FAIR" INDICATES FEW OR NO CLOUDS BELOW 12,000 FEET WITH NO
SIGNIFICANT WEATHER AND/OR OBSTRUCTIONS TO VISIBILITY.

NYZ071-072-176-178-NJZ106-104-161200-
NEW YORK CITY METRO AREA

CITY           SKY/WX    TMP DP  RH WIND       PRES   REMARKS
Central Park   CLOUDY    60  47  61 VRB7      29.94R
Bronx Bot Gard   N/A     59  46  63 NW5       29.93R
LaGuardia APRT CLOUDY    62  49  62 NW20      29.90R
Kennedy INTL   CLOUDY    61  48  62 NW20G29   29.90R
Breezy Point     N/A     61 N/A N/A NW13G20     N/A
Newark/Liberty CLOUDY    60  50  69 NW12      29.91R
Teterboro      CLOUDY    60  48  64 NW10      29.91R
$$

NYZ177-179-078>081-161200-
LONG ISLAND NEW YORK

CITY           SKY/WX    TMP DP  RH WIND       PRES   REMARKS
Jones Beach      N/A     61 N/A N/A NW16G23     N/A
Matinecock PT    N/A     63 N/A N/A NW21G28     N/A
Farmingdale    CLOUDY    62  49  62 NW8G17    29.89R
MacArthur/ISP  CLOUDY    62  53  72 W14G21    29.88R
Shirley        LGT RAIN  63  59  87 W6        29.88R
Mt Sinai Harb    N/A    N/A N/A N/A NW9G15      N/A
Westhampton    NOT AVBL
East Hampton   DRIZZLE   61  58  91 NW6       29.85R
Montauk          N/A     65  59  81 NW8       29.85R
$$

NYZ052-065-067-161200-
HUDSON VALLEY

CITY           SKY/WX    TMP DP  RH WIND       PRES   REMARKS
White Plains   CLOUDY    59  48  67 NW15G23   29.89R
Larchmont Harb   N/A     61 N/A N/A W17G23      N/A
Croton On Huds   N/A     59 N/A N/A NW16        N/A
Newburgh       MOCLDY    54  45  71 NW7       29.93R
Montgomery     CLOUDY    54  41  61 NW14G28   29.92R
Poughkeepsie   CLOUDY    56  42  59 NW12      29.90R
Albany         CLOUDY    49  39  68 W15G21    29.96R
$$

NJZ001-105-106-008-010-013-015-019>022-104-161200-
NEW JERSEY

CITY           SKY/WX    TMP DP  RH WIND       PRES   REMARKS
Newark/Liberty CLOUDY    60  50  69 NW12      29.91R
Teterboro      CLOUDY    60  48  64 NW10      29.91R
Caldwell       MOCLDY    58  49  72 NW10      29.94R
Somerville     CLOUDY    59  49  69 VRB6      29.93R
Linden         FAIR      61  51  71 N10G16    29.92R
Perth Amboy      N/A     61 N/A N/A NW14G21     N/A
Sussex         MOCLDY    53  42  66 MISG      29.97R
Andover          N/A     54  47  77 N8        29.97R
Trenton        CLOUDY    61  57  87 N12       29.93R
Millville      LGT RAIN  60  60 100 CALM      29.94F FOG
Atlantic City  RAIN      59  59 100 W8        29.95R FOG
Wrightstown    MOCLDY    59  57  94 W5        29.92R
Toms River     LGT RAIN  59  59 100 W8        29.94R
Belmar         LGT RAIN  60  59  96 W3        29.93R
$$

PAZ047>061-062-071-161200-
EASTERN PENNSYLVANIA

CITY           SKY/WX    TMP DP  RH WIND       PRES   REMARKS
Philadelphia   CLOUDY    62  57  83 NW7       29.95R
Allentown      CLOUDY    57  48  72 N7        29.96R
Scranton       CLOUDY    50  43  77 N7G16     30.02R
$$

CTZ002-004>006-009-010-012-RIZ004-006-007-MAZ004-011-015-161200-
SOUTHERN NEW ENGLAND
 IN CT

CITY           SKY/WX    TMP DP  RH WIND       PRES   REMARKS
Bradley INTL   CLOUDY    56  44  64 NW14G24   29.86R
Hartford       CLOUDY    58  46  64 N12G17    29.84S
Danbury        MOCLDY    59  49  69 VRB5      29.90R
Wtrbury/Oxford CLOUDY    55  48  77 NW14      29.90R
Norwalk Harbor   N/A     61 N/A N/A W13         N/A
Bridgeport     LGT RAIN  62  52  69 W12       29.86R
Meriden        CLOUDY    58  48  69 NW9G18    29.87R
New Haven      CLOUDY    61  51  70 N13G23    29.87R
Chester        FAIR      59  50  72 NW9       29.86R
Groton         CLOUDY    61  52  72 NW12      29.84R
Wilimantic     CLOUDY    58  49  72 N10G17    29.84R

 IN RI

CITY           SKY/WX    TMP DP  RH WIND       PRES   REMARKS
Providence     CLOUDY    61  52  72 NW7       29.82R
Block Island   CLOUDY    63  58  83 NW9       29.85R
Westerly       CLOUDY    62  55  77 NW6       29.86R
 IN MA

CITY           SKY/WX    TMP DP  RH WIND       PRES   REMARKS
Boston         CLOUDY    63  50  62 W13G22    29.78R
Worcester      CLOUDY    53  44  71 W14G22    29.84R
Westfield      CLOUDY    55  44  66 NW13G24   29.86R
Provincetown   CLOUDY    62  58  86 W8        29.79S
Nantucket      CLOUDY    64  64 100 W13       29.80S FOG
$$

ANZ330-335-338-340-345-350-353-355-161200-
COASTAL MARINE OBSERVATIONS


STATION/POSITION TIME  SKY/WX   TEMP    WIND        PRES    VSBY  WAVE
                                AIR SEA DIR/SP/G                  HT/PER
                 (UTC)          (F)     (DEG/KT/KT) (MB)    (MI)  (FT/S)
NY HARB ENTRANCE 1050            64 67  310/ 14/ 16 1011.6          4/ 7
20 S FIRE ISLAND 1050            62 66  330/ 19/ 25 1011.9          5/ 7
GREAT SOUTH BAY  1030            63 66  290/ 10/ 12   N/A
15 E BARNEGAT LI 1030               68                N/A           5/ 6
HUDSON CANYON    1050            68 66  290/  8/ 10 1011.4          6/ 7
KINGS POINT      1036            62 69  360/ 14/ 20 1013.2
EXECUTION ROCKS  1030            63     320/ 16/ 21   N/A
WESTERN LI SOUND 0949            63     310/ 14/ 17   N/A           1
CENTRAL LI SOUND 1015            65     300/ 12/ 16   N/A           2
EASTERN LI SOUND NOT AVBL
ROBBINS REEF     1036            62     320/ 12/ 20 1013.0
$$


>>>>>>>>>>>>>>>>>>>>>>>>>>>> KEY <<<<<<<<<<<<<<<<<<<<<<<<<<<
>                                                          <
>     SKY/WX - Sky Condition/Present Weather               <
>     TMP    - Temperature in Fahrenheit                   <
>     DP     - Dew Point in Fahrenheit                     <
>     RH     - Relative Humidity in Percent                <
>     WIND   - Direction (from) and Speed in MPH           <
>     PRES   - Mean Sea Level Pressure (inches of Hg)      <
>     WCI    - Wind Chill Index                            <
>     VSB    - VISIBILITY IN MILES                         <
>     HX     - HEAT INDEX                                  <
>     TC     - TEMPERATURE IN CELSIUS                      <
>     VRB    - VARIABLE WIND DIRECTION                     <
>                                                          <
>>>>>>>>>>>>>>>>>>>>>>>>>>>> KEY <<<<<<<<<<<<<<<<<<<<<<<<<<<




USA.gov is the U.S. government's official web portal to all federal, state and local government web resources and services.